ONEWEB-0124 (47270 NORAD) Tracking and Keplerian Element Data
This shows tracking and keplerian element data for the satellite.
Feedback or suggestion? Click here.
Element | Value |
Catalog | 47270 |
Name | ONEWEB-0124 |
Epoch Orbit | 437 |
Epoch Day | 16.16667824 |
Epoch Year | 2021 |
RAAN | 29.616 |
Inclination | 87.4237 |
Eccentricity | 0.0009763 |
Argument of Perigee | 148.5195 |
Mean Anonmoly | 212.3672 |
Mean Motion | 15.05156456 |
Decay Rate | -0.01506938 |
L1 | 1 47270U 20100N 21016.16667824 -.01506938 00000-0 -11608+0 0 9992 |
L2 | 2 47270 87.4237 29.6160 0009763 148.5195 212.3672 15.05156456 4370 |
Live tracking and technical data element details for ONEWEB-0124 (NORAD 47270). ONEWEB-0124 can be tracked NOW for your location showing map with azimuth and elevation plus other details from your city location.
Track the satellite on the map from your city or location and see movement details for azimuth, elevation, latitude, longitude, range, height, and movement on the map or in text.
IsCatalogInMostPopularTable: catalog: 47270, numindb: 10
Update: records affected: 1
GetName: 47270 ONEWEB-0124
Hit Count: updated at: Sun, 17 Jan 2021 09:06:48 GMT